レモン彗星

C/2022 T1 ( Lemmon )

English version
Home page
Updated on January 31, 2024

---------------------------------------------------------------------

・ プロフィール

発見日 2022年10月3日
発見光度 21.2等
発見者 Mt. Lemmon Survey

・ 写真集

・ 軌道要素

Epoch 2023 Sept. 13.0 TT = JDT 2460200.5
T 2024 Feb. 17.52462 TT                                 Rudenko
q   3.4448235            (2000.0)            P               Q
z  +0.0000992      Peri.  324.31829     -0.89473593     +0.31024320
 +/-0.0000052      Node   236.92013     -0.26572487     -0.94795932
e   0.9996584      Incl.   22.54353     -0.35893998     -0.07157012
>From 297 observations 2022 Oct. 3-2024 Jan. 20, mean residual 0".5.

・ 星図

・ 光度変化

        m1 = 8.7 + 5 logΔ + 10.0 log r

---------------------------------------------------------------------

軌道要素はM.P.E.C. 2024-B140に掲載されたものです。
星図はステラナビゲータ Ver.10 (アストロアーツ) で作成したものです。
光度グラフはComet for Windowsで作成したものです。

---------------------------------------------------------------------

Copyright(C) Seiichi Yoshida (comet@aerith.net). All rights reserved.